Terminal Aerodrome Forecast
Issued by NWS

Current Version | Previous Version | Graphics & Text | Print | Product List | Glossary On
Versions: 1 2 3 4 5 6 7 8 9 10 11 12 13 14 15 16 17 18 19 20 21 22 23 24 25 26 27 28 29 30 31 32 33 34 35 36 37 38 39 40 41 42 43 44 45 46 47 48 49 50
000
FTUS41 KRNK 021722
TAFLWB
TAF
KLWB 021722Z 0218/0318 31008KT P6SM SCT030 BKN060
     FM022200 VRB03KT P6SM SCT250
     FM030700 05003KT P6SM OVC050
     FM031300 07007KT 5SM -FZRA OVC007=

USA.gov is the U.S. government's official web portal to all federal, state and local government web resources and services.